Regional Weather Roundup
Issued by NWS

Home | Current Version | Previous Version | Graphics & Text | Print | Product List | Glossary On
Versions: 1 2 3 4 5 6 7 8 9 10 11 12 13 14 15 16 17 18 19 20 21 22 23 24 25 26 27
000
ASUS45 KCYS 311410
RWRWY

WYOMING REGIONAL WEATHER ROUNDUP
NATIONAL WEATHER SERVICE CHEYENNE WY
800 AM MDT TUE MAY 31 2016

NOTE:  "FAIR" INDICATES FEW OR NO CLOUDS BELOW 12,000 FEET
WITH NO SIGNIFICANT WEATHER AND/OR OBSTRUCTIONS TO VISIBILITY.

WYZ001-311500-
YELLOWSTONE NATIONAL PARK

CITY           SKY/WX    TMP DP  RH WIND       PRES   REMARKS
LK YELLOWSTONE   N/A     39  22  50 VRB5      30.28R
W YELLOWSTONE  NOT AVBL

$$
WYZ002>013-054>058-071-098>099-311500-
NORTHERN WYOMING

CITY           SKY/WX    TMP DP  RH WIND       PRES   REMARKS
JACKSON        SUNNY     41  32  70 N13       30.22R
CODY           FAIR      46  36  66 SE3       30.18S
GREYBULL       FAIR      54  34  46 NW8       30.16R
WORLAND        FAIR      53  33  46 NW9       30.17R
SHERIDAN       FAIR      55  33  43 NW18G26   30.12R
BUFFALO        FAIR      53  30  41 VRB3      30.10F
GILLETTE       FAIR      51  36  56 W22G30    30.05F
HULETT         CLOUDY    46  36  66 W16G23    30.03S
NEWCASTLE      FAIR      52  32  46 NW20G28   30.10R

$$
WYZ014>020-022>026-101>103-311500-
CENTRAL WYOMING

CITY           SKY/WX    TMP DP  RH WIND       PRES   REMARKS
BIG PINEY      FAIR      45  36  70 CALM      30.21R
PINEDALE       FAIR      41  32  70 CALM      30.22R
DUBOIS         FAIR      43  30  61 CALM      30.21R
LANDER         PTSUNNY   50  39  66 NW3       30.17R
RIVERTON       FAIR      52  35  52 E3        30.19R
CASPER         CLOUDY    43  39  86 SW8       30.16R
DOUGLAS          N/A    N/A N/A N/A MISG      30.15R

$$
WYZ021-027>030-104>119-311500-
SOUTHERN WYOMING

CITY           SKY/WX    TMP DP  RH WIND       PRES   REMARKS
EVANSTON       FAIR      46  38  73 N3        30.19R
KEMMERER         N/A     45  32  61 N8        30.20S
FORT BRIDGER   SUNNY     46  34  61 NW5       30.22R
ROCK SPRINGS   FAIR      44  40  85 E6        30.19S
DIXON          FAIR      45  38  76 W3        30.20R
RAWLINS        PTSUNNY   49  39  68 E5        30.18R
SARATOGA       FAIR      45  39  81 NW6       30.18S
LARAMIE        FAIR      46  38  73 SE15      30.16S
CHEYENNE       CLOUDY    47  31  53 CALM      30.17S
TORRINGTON     CLOUDY    49  44  83 NW5       30.12S
PINE BLUFFS    CLOUDY    48  37  66 SW3       30.15F

$$




USA.gov is the U.S. government's official web portal to all federal, state and local government web resources and services.